"SCET";"TARGET";"ELECTRON_DENSITY";"ERROR_FLAG";"ELECTRON_DENSITY_ERROR";"FREQ_FCE";"MEASURED_VALUE";"MEASURED_ITEM";"FREQ_PLASMA";"FREQ_UPPER_HYBRID";"FREQ_R_EQUALS_ZERO";"FREQ_L_EQUALS_ZERO";"ORBIT_NUMBER";"SATURN_RADIUS";"SATURN_IAU_LONGITUDE";"SATURN_SLS4_S_LONGITUDE";"SATURN_SLS4_N_LONGITUDE";"SATURN_SLS5_S_LONGITUDE";"SATURN_SLS5_N_LONGITUDE";"SATURN_LOCAL_TIME";"SATURN_KRONOGRAPHIC_LATITUDE";"SATURN_MAGNETIC_LATITUDE";"SATURN_L";"SATURN_L_OFFSET";"SATURN_SOLAR_EQUATORIAL_X";"SATURN_SOLAR_EQUATORIAL_Y";"SATURN_SOLAR_EQUATORIAL_Z";"SATURN_ALTITUDE";"ENCELADUS_ENCOUNTER_NUMBER";"ENCELADUS_RADIUS";"ENCELADUS_COROTATIONAL_X";"ENCELADUS_COROTATIONAL_Y";"ENCELADUS_COROTATIONAL_Z";"ENCELADUS_TRUE_ANOMALY";"ENCELADUS_PERIAPSIS_TIME";"JUPITER_RADIUS";"JUPITER_SYSTEMIII_LONGITUDE";"JUPITER_MAGNETIC_LATITUDE";"JUPITER_MAGNETIC_LOCAL_TIME";"JUPITER_L";"IO_PHASE";"EARTH_RADIUS";"EARTH_MAGNETIC_LATITUDE";"EARTH_LOCAL_TIME";"EARTH_L"
"[UTC]";"[0=Saturn, 1=Enceladus, 2=Jupiter, 3=Earth]";"[cm-3]";"[0=automated, 1=manual]";"[normalized density error]";"[Hz]";"[Hz]";"[0=upper hybrid frequency, 1=plasma frequency cutoff]";"[Hz]";"[Hz]";"[Hz]";"[Hz}";"[0, A, B, C, 3, 4, ... , 292, 293]";"[Rs where 1Rs=60268km]";"[degrees]";"[degrees]";"[degrees]";"[degrees]";"[degrees]";"[hours]";"[degrees]";"[degrees where offset=2293km north]";"[Rs where 1Rs=60268km]";"[Rs where 1Rs=60268km and offset=2293km north]";"[Rs where 1Rs=60268km]";"[Rs where 1Rs=60268km]";"[Rs where 1Rs=60268km]";"[km where ellipsoid a,b=60268km and c=54364km]";"[E0, E1, E2, ... , E21, E22]";"[Renc where 1Renc=252.1km]";"[Renc where 1Renc=252.1km]";"[Renc where 1Renc=252.1km]";"[Renc where 1Renc=252.1km]";"[degrees]";"[UTC]";"[Rj where 1Rj=71492km]";"[degrees]";"[degrees using JRM09 model]";"[hours using JRM09 model]";"[Rj where 1Rj=71492km]";"[degrees]";"[Re where 1Re=6378.1366km]";"[degrees]";"[hours]";"[Re where 1Re=6378.1366km]"
2016-09-24T01:48:59.599Z;0;1.0090e+01;0;     0.150;   831.908;  28533.379; 0;  28521.248;  28533.379;  28940.236;  28108.328;243;   8.441; 164.847;;;  20.148; 179.358;  13.722;   2.009;   1.751;   8.451;   8.431;   7.593;   3.675;   0.296;;;;;;;;;;;;;;;;;;
2016-09-24T01:49:07.599Z;0;8.7210e+00;0;     0.160;   813.176;  26531.512; 0;  26519.047;  26531.512;  26928.752;  26115.576;243;   8.440; 164.917;;;  20.216; 179.425;  13.722;   2.001;   1.743;   8.451;   8.430;   7.592;   3.676;   0.295;;;;;;;;;;;;;;;;;;
2016-09-24T01:49:15.599Z;0;8.0000e+00;0;     0.194;   813.176;  25412.629; 0;  25399.615;  25412.629;  25809.457;  24996.281;243;   8.440; 164.986;;;  20.285; 179.492;  13.722;   1.994;   1.736;   8.450;   8.430;   7.592;   3.676;   0.293;;;;;;;;;;;;;;;;;;
2016-09-24T01:49:23.599Z;0;8.4700e+00;0;     0.190;   813.176;  26147.631; 0;  26134.982;  26147.631;  26544.734;  25731.559;243;   8.440; 165.056;;;  20.354; 179.560;  13.723;   1.987;   1.728;   8.450;   8.430;   7.591;   3.677;   0.292;;;;;;;;;;;;;;;;;;
2016-09-24T01:49:31.599Z;0;8.0190e+00;0;     0.176;   813.176;  25442.629; 0;  25429.631;  25442.629;  25839.469;  25026.293;243;   8.439; 165.126;;;  20.422; 179.627;  13.723;   1.979;   1.721;   8.449;   8.429;   7.591;   3.677;   0.291;;;;;;;;;;;;;;;;;;
2016-09-24T01:49:39.599Z;0;6.8360e+00;0;     0.198;   813.176;  23493.342; 0;  23479.264;  23493.342;  23889.373;  23076.197;243;   8.439; 165.195;;;  20.491; 179.694;  13.723;   1.972;   1.714;   8.449;   8.429;   7.590;   3.678;   0.290;;;;;;;;;;;;;;;;;;
2016-09-24T01:50:03.599Z;0;6.2410e+00;0;     0.207;   803.712;  22448.463; 0;  22434.070;  22448.463;  22839.525;  22035.814;243;   8.438; 165.404;;;  20.697; 179.897;  13.725;   1.949;   1.691;   8.448;   8.428;   7.588;   3.680;   0.287;;;;;;;;;;;;;;;;;;
2016-09-24T01:50:11.599Z;0;6.8080e+00;0;     0.205;   803.712;  23444.381; 0;  23430.600;  23444.381;  23835.902;  23032.189;243;   8.438; 165.474;;;  20.766; 179.965;  13.725;   1.942;   1.684;   8.447;   8.428;   7.587;   3.680;   0.286;;;;;;;;;;;;;;;;;;
2016-09-24T01:50:27.599Z;0;6.9210e+00;0;     0.210;   803.712;  23638.785; 0;  23625.119;  23638.785;  24030.393;  23226.680;243;   8.437; 165.613;;;  20.905; 180.102;  13.726;   1.927;   1.669;   8.446;   8.427;   7.586;   3.681;   0.284;;;;;;;;;;;;;;;;;;
2016-09-24T01:50:35.598Z;0;7.4520e+00;0;     0.218;   803.712;  24526.590; 0;  24513.418;  24526.590;  24918.568;  24114.855;243;   8.436; 165.683;;;  20.974; 180.171;  13.726;   1.920;   1.662;   8.446;   8.427;   7.585;   3.682;   0.282;;;;;;;;;;;;;;;;;;
2016-09-24T01:50:43.598Z;0;7.4150e+00;0;     0.177;   803.712;  24466.758; 0;  24453.553;  24466.758;  24858.711;  24055.000;243;   8.436; 165.752;;;  21.043; 180.240;  13.726;   1.912;   1.654;   8.445;   8.426;   7.585;   3.682;   0.281;;;;;;;;;;;;;;;;;;
2016-09-24T01:50:51.598Z;0;8.0890e+00;0;     0.204;   803.712;  25553.258; 0;  25540.615;  25553.258;  25945.633;  25141.920;243;   8.436; 165.822;;;  21.112; 180.308;  13.727;   1.905;   1.647;   8.445;   8.426;   7.584;   3.683;   0.280;;;;;;;;;;;;;;;;;;
2016-09-24T01:50:59.598Z;0;8.1180e+00;0;     0.175;   803.712;  25597.986; 0;  25585.365;  25597.986;  25990.377;  25186.666;243;   8.435; 165.892;;;  21.181; 180.377;  13.727;   1.898;   1.639;   8.445;   8.426;   7.584;   3.684;   0.279;;;;;;;;;;;;;;;;;;
2016-09-24T01:51:07.598Z;0;8.1410e+00;0;     0.165;   795.984;  25635.037; 0;  25622.676;  25635.037;  26023.760;  25227.775;243;   8.435; 165.961;;;  21.251; 180.446;  13.727;   1.890;   1.632;   8.444;   8.425;   7.583;   3.684;   0.278;;;;;;;;;;;;;;;;;;
2016-09-24T01:51:15.598Z;0;7.8540e+00;0;     0.185;   795.984;  25178.270; 0;  25165.684;  25178.270;  25566.822;  24770.840;243;   8.435; 166.031;;;  21.320; 180.514;  13.728;   1.883;   1.624;   8.444;   8.425;   7.582;   3.685;   0.277;;;;;;;;;;;;;;;;;;
2016-09-24T01:51:23.598Z;0;7.3280e+00;0;     0.205;   795.984;  24322.334; 0;  24309.305;  24322.334;  24710.555;  23914.572;243;   8.434; 166.100;;;  21.389; 180.583;  13.728;   1.875;   1.617;   8.443;   8.424;   7.582;   3.685;   0.276;;;;;;;;;;;;;;;;;;
2016-09-24T01:51:31.598Z;0;7.8150e+00;0;     0.136;   795.984;  25116.467; 0;  25103.850;  25116.467;  25504.998;  24709.014;243;   8.434; 166.170;;;  21.458; 180.652;  13.729;   1.868;   1.610;   8.443;   8.424;   7.581;   3.686;   0.275;;;;;;;;;;;;;;;;;;
2016-09-24T01:51:39.598Z;0;8.3940e+00;0;     0.205;   795.984;  26029.348; 0;  26017.174;  26029.348;  26418.211;  25622.227;243;   8.434; 166.240;;;  21.528; 180.721;  13.729;   1.860;   1.602;   8.442;   8.424;   7.580;   3.687;   0.274;;;;;;;;;;;;;;;;;;
2016-09-24T01:51:47.598Z;0;6.4370e+00;0;     0.155;   795.984;  22797.533; 0;  22783.633;  22797.533;  23185.102;  22389.117;243;   8.433; 166.309;;;  21.597; 180.789;  13.729;   1.853;   1.595;   8.442;   8.423;   7.580;   3.687;   0.272;;;;;;;;;;;;;;;;;;
2016-09-24T01:52:27.598Z;0;7.4390e+00;0;     0.194;   805.588;  24505.021; 0;  24491.775;  24505.021;  24897.883;  24092.295;243;   8.431; 166.657;;;  21.943; 181.134;  13.731;   1.816;   1.557;   8.440;   8.422;   7.576;   3.690;   0.267;;;;;;;;;;;;;;;;;;
2016-09-24T01:52:59.598Z;0;7.2830e+00;0;     0.178;   805.588;  24247.975; 0;  24234.590;  24247.975;  24640.730;  23835.143;243;   8.430; 166.936;;;  22.220; 181.409;  13.733;   1.786;   1.528;   8.438;   8.420;   7.574;   3.692;   0.263;;;;;;;;;;;;;;;;;;
2016-09-24T01:54:43.597Z;0;6.1780e+00;0;     0.184;   822.556;  22335.424; 0;  22320.271;  22335.424;  22735.340;  21912.783;243;   8.425; 167.841;;;  23.119; 182.307;  13.737;   1.689;   1.431;   8.433;   8.416;   7.566;   3.700;   0.248;;;;;;;;;;;;;;;;;;
2016-09-24T01:54:59.597Z;0;8.3340e+00;0;     0.196;   822.556;  25937.455; 0;  25924.408;  25937.455;  26338.949;  25516.393;243;   8.425; 167.980;;;  23.258; 182.445;  13.738;   1.675;   1.416;   8.432;   8.415;   7.564;   3.701;   0.246;;;;;;;;;;;;;;;;;;
2016-09-24T01:55:07.597Z;0;9.0880e+00;0;     0.180;   808.808;  27083.127; 0;  27071.047;  27083.127;  27478.471;  26669.664;243;   8.424; 168.050;;;  23.327; 182.515;  13.738;   1.667;   1.408;   8.431;   8.415;   7.564;   3.702;   0.245;;;;;;;;;;;;;;;;;;
2016-09-24T01:55:15.597Z;0;6.7120e+00;0;     0.184;   808.808;  23278.420; 0;  23264.365;  23278.420;  23672.283;  22863.475;243;   8.424; 168.119;;;  23.396; 182.584;  13.739;   1.660;   1.401;   8.431;   8.414;   7.563;   3.702;   0.244;;;;;;;;;;;;;;;;;;
2016-09-24T01:55:23.597Z;0;8.0280e+00;0;     0.194;   808.808;  25456.266; 0;  25443.414;  25456.266;  25851.031;  25042.223;243;   8.424; 168.189;;;  23.465; 182.653;  13.739;   1.652;   1.394;   8.431;   8.414;   7.562;   3.703;   0.243;;;;;;;;;;;;;;;;;;
2016-09-24T01:55:31.597Z;0;8.0990e+00;0;     0.173;   808.808;  25568.807; 0;  25556.012;  25568.807;  25963.615;  25154.807;243;   8.423; 168.258;;;  23.535; 182.722;  13.739;   1.645;   1.386;   8.430;   8.414;   7.562;   3.703;   0.242;;;;;;;;;;;;;;;;;;
2016-09-24T01:55:39.597Z;0;7.6650e+00;0;     0.223;   808.808;  24875.734; 0;  24862.582;  24875.734;  25270.275;  24461.467;243;   8.423; 168.328;;;  23.604; 182.792;  13.740;   1.637;   1.379;   8.430;   8.413;   7.561;   3.704;   0.240;;;;;;;;;;;;;;;;;;
2016-09-24T01:55:47.596Z;0;8.4580e+00;0;     0.220;   808.808;  26128.797; 0;  26116.275;  26128.797;  26523.811;  25715.002;243;   8.423; 168.398;;;  23.673; 182.861;  13.740;   1.630;   1.371;   8.429;   8.413;   7.560;   3.705;   0.239;;;;;;;;;;;;;;;;;;
2016-09-24T01:55:55.596Z;0;8.8550e+00;0;     0.171;   808.808;  26733.766; 0;  26721.527;  26733.766;  27128.992;  26320.184;243;   8.422; 168.467;;;  23.742; 182.930;  13.741;   1.622;   1.364;   8.429;   8.413;   7.560;   3.705;   0.238;;;;;;;;;;;;;;;;;;
2016-09-24T01:56:03.596Z;0;8.2730e+00;0;     0.188;   801.752;  25841.553; 0;  25829.111;  25841.553;  26233.100;  25431.348;243;   8.422; 168.537;;;  23.811; 183.000;  13.741;   1.615;   1.356;   8.428;   8.412;   7.559;   3.706;   0.237;;;;;;;;;;;;;;;;;;
2016-09-24T01:56:11.596Z;0;8.2620e+00;0;     0.177;   801.752;  25824.902; 0;  25812.453;  25824.902;  26216.443;  25414.691;243;   8.421; 168.606;;;  23.881; 183.069;  13.741;   1.608;   1.349;   8.428;   8.412;   7.558;   3.706;   0.236;;;;;;;;;;;;;;;;;;
2016-09-24T01:56:19.596Z;0;8.7540e+00;0;     0.176;   801.752;  26582.061; 0;  26569.967;  26582.061;  26973.867;  26172.115;243;   8.421; 168.676;;;  23.950; 183.138;  13.742;   1.600;   1.341;   8.428;   8.411;   7.558;   3.707;   0.235;;;;;;;;;;;;;;;;;;
2016-09-24T01:56:27.596Z;0;7.9440e+00;0;     0.166;   801.752;  25323.076; 0;  25310.381;  25323.076;  25714.432;  24912.680;243;   8.421; 168.746;;;  24.019; 183.208;  13.742;   1.593;   1.334;   8.427;   8.411;   7.557;   3.707;   0.234;;;;;;;;;;;;;;;;;;
2016-09-24T01:56:35.596Z;0;7.7160e+00;0;     0.193;   801.752;  24957.830; 0;  24944.949;  24957.830;  25349.045;  24547.293;243;   8.420; 168.815;;;  24.088; 183.277;  13.742;   1.585;   1.326;   8.427;   8.411;   7.557;   3.708;   0.233;;;;;;;;;;;;;;;;;;
2016-09-24T02:01:31.594Z;0;8.9890e+00;0;     0.149;   823.564;  26935.461; 0;  26922.867;  26935.461;  27337.799;  26514.234;243;   8.407; 171.390;;;  26.648; 185.840;  13.756;   1.309;   1.050;   8.412;   8.398;   7.533;   3.729;   0.192;;;;;;;;;;;;;;;;;;
2016-09-24T02:01:39.594Z;0;7.9170e+00;0;     0.183;   823.564;  25280.432; 0;  25267.014;  25280.432;  25682.150;  24858.586;243;   8.407; 171.460;;;  26.718; 185.908;  13.756;   1.302;   1.042;   8.411;   8.397;   7.532;   3.730;   0.191;;;;;;;;;;;;;;;;;;
2016-09-24T02:01:55.594Z;0;6.6530e+00;0;     0.191;   823.564;  23177.797; 0;  23163.160;  23177.797;  23578.604;  22755.039;243;   8.406; 171.599;;;  26.856; 186.044;  13.757;   1.287;   1.027;   8.410;   8.397;   7.531;   3.731;   0.189;;;;;;;;;;;;;;;;;;
2016-09-24T02:02:11.594Z;0;6.6460e+00;0;     0.226;   817.376;  23164.420; 0;  23149.994;  23164.420;  23562.289;  22744.914;243;   8.405; 171.738;;;  26.994; 186.181;  13.758;   1.272;   1.012;   8.410;   8.396;   7.529;   3.732;   0.186;;;;;;;;;;;;;;;;;;
2016-09-24T02:02:19.594Z;0;6.5480e+00;0;     0.241;   817.376;  22993.305; 0;  22978.771;  22993.305;  23391.094;  22573.719;243;   8.405; 171.808;;;  27.063; 186.249;  13.758;   1.264;   1.005;   8.409;   8.396;   7.529;   3.733;   0.185;;;;;;;;;;;;;;;;;;
2016-09-24T02:03:23.594Z;0;6.6090e+00;0;     0.196;   828.688;  23101.008; 0;  23086.139;  23101.008;  23504.201;  22675.514;243;   8.402; 172.364;;;  27.617; 186.794;  13.761;   1.204;   0.945;   8.406;   8.393;   7.523;   3.737;   0.176;;;;;;;;;;;;;;;;;;
2016-09-24T02:03:39.593Z;0;6.2200e+00;0;     0.199;   828.688;  22411.510; 0;  22396.184;  22411.510;  22814.359;  21985.672;243;   8.402; 172.504;;;  27.755; 186.930;  13.762;   1.189;   0.930;   8.405;   8.392;   7.522;   3.739;   0.174;;;;;;;;;;;;;;;;;;
2016-09-24T02:04:03.593Z;0;6.2130e+00;0;     0.217;   822.696;  22399.061; 0;  22383.947;  22399.061;  22799.074;  21976.379;243;   8.401; 172.712;;;  27.963; 187.134;  13.763;   1.167;   0.908;   8.404;   8.391;   7.520;   3.740;   0.171;;;;;;;;;;;;;;;;;;
2016-09-24T02:04:11.593Z;0;6.5400e+00;0;     0.204;   822.696;  22979.859; 0;  22965.129;  22979.859;  23380.160;  22557.463;243;   8.400; 172.782;;;  28.032; 187.202;  13.763;   1.159;   0.900;   8.404;   8.391;   7.519;   3.741;   0.170;;;;;;;;;;;;;;;;;;
2016-09-24T02:04:27.593Z;0;6.0600e+00;0;     0.190;   822.696;  22122.104; 0;  22106.801;  22122.104;  22521.975;  21699.279;243;   8.399; 172.921;;;  28.170; 187.338;  13.764;   1.145;   0.885;   8.403;   8.390;   7.518;   3.742;   0.168;;;;;;;;;;;;;;;;;;
2016-09-24T02:04:35.593Z;0;6.2020e+00;0;     0.205;   822.696;  22378.730; 0;  22363.604;  22378.730;  22778.734;  21956.037;243;   8.399; 172.991;;;  28.240; 187.406;  13.764;   1.137;   0.878;   8.402;   8.390;   7.518;   3.743;   0.166;;;;;;;;;;;;;;;;;;
2016-09-24T02:04:43.593Z;0;6.3280e+00;0;     0.149;   822.696;  22603.803; 0;  22588.826;  22603.803;  23003.920;  22181.223;243;   8.399; 173.060;;;  28.309; 187.474;  13.765;   1.130;   0.870;   8.402;   8.389;   7.517;   3.743;   0.165;;;;;;;;;;;;;;;;;;
2016-09-24T02:04:59.593Z;0;6.5870e+00;0;     0.207;   822.696;  23061.209; 0;  23046.529;  23061.209;  23461.549;  22638.852;243;   8.398; 173.199;;;  28.447; 187.610;  13.765;   1.115;   0.855;   8.401;   8.389;   7.516;   3.744;   0.163;;;;;;;;;;;;;;;;;;
2016-09-24T02:05:07.593Z;0;5.9780e+00;0;     0.168;   822.556;  21971.730; 0;  21956.328;  21971.730;  22371.457;  21548.902;243;   8.398; 173.269;;;  28.516; 187.677;  13.766;   1.107;   0.848;   8.401;   8.388;   7.515;   3.745;   0.162;;;;;;;;;;;;;;;;;;
2016-09-24T02:05:23.593Z;0;6.7820e+00;0;     0.204;   822.556;  23399.855; 0;  23385.395;  23399.855;  23800.287;  22977.732;243;   8.397; 173.408;;;  28.655; 187.813;  13.767;   1.092;   0.833;   8.400;   8.388;   7.514;   3.746;   0.160;;;;;;;;;;;;;;;;;;
2016-09-24T02:05:31.593Z;0;6.2390e+00;0;     0.171;   822.556;  22445.029; 0;  22429.951;  22445.029;  22845.000;  22022.443;243;   8.397; 173.478;;;  28.724; 187.881;  13.767;   1.085;   0.825;   8.400;   8.387;   7.513;   3.747;   0.159;;;;;;;;;;;;;;;;;;
2016-09-24T02:05:47.593Z;0;7.1020e+00;0;     0.225;   822.556;  23945.273; 0;  23931.141;  23945.273;  24345.953;  23523.396;243;   8.396; 173.617;;;  28.862; 188.016;  13.768;   1.070;   0.810;   8.399;   8.387;   7.512;   3.748;   0.156;;;;;;;;;;;;;;;;;;
2016-09-24T02:05:55.593Z;0;6.8300e+00;0;     0.187;   822.556;  23483.742; 0;  23469.332;  23483.742;  23884.213;  23061.658;243;   8.396; 173.686;;;  28.931; 188.084;  13.768;   1.062;   0.803;   8.399;   8.386;   7.511;   3.748;   0.155;;;;;;;;;;;;;;;;;;
2016-09-24T02:06:11.592Z;0;6.8690e+00;0;     0.202;   809.788;  23549.717; 0;  23535.789;  23549.717;  23944.166;  23134.379;243;   8.395; 173.825;;;  29.070; 188.219;  13.769;   1.047;   0.788;   8.398;   8.386;   7.510;   3.749;   0.153;;;;;;;;;;;;;;;;;;
2016-09-24T02:06:19.592Z;0;7.4960e+00;0;     0.177;   809.788;  24598.697; 0;  24585.365;  24598.697;  24993.592;  24183.805;243;   8.395; 173.895;;;  29.139; 188.287;  13.769;   1.040;   0.780;   8.397;   8.385;   7.509;   3.750;   0.152;;;;;;;;;;;;;;;;;;
2016-09-24T02:06:27.592Z;0;8.2870e+00;0;     0.179;   809.788;  25864.100; 0;  25851.420;  25864.100;  26259.484;  25449.695;243;   8.394; 173.965;;;  29.208; 188.355;  13.769;   1.032;   0.772;   8.397;   8.385;   7.508;   3.751;   0.151;;;;;;;;;;;;;;;;;;
2016-09-24T02:06:35.592Z;0;8.1740e+00;0;     0.154;   809.788;  25686.432; 0;  25673.664;  25686.432;  26081.750;  25271.963;243;   8.394; 174.034;;;  29.277; 188.422;  13.770;   1.025;   0.765;   8.397;   8.385;   7.508;   3.751;   0.150;;;;;;;;;;;;;;;;;;
2016-09-24T02:06:43.592Z;0;8.2100e+00;0;     0.174;   809.788;  25743.871; 0;  25731.131;  25743.871;  26139.211;  25329.424;243;   8.394; 174.104;;;  29.346; 188.490;  13.770;   1.017;   0.757;   8.396;   8.384;   7.507;   3.752;   0.149;;;;;;;;;;;;;;;;;;
2016-09-24T02:06:51.592Z;0;7.4890e+00;0;     0.206;   809.788;  24587.627; 0;  24574.289;  24587.627;  24982.518;  24172.730;243;   8.393; 174.173;;;  29.415; 188.558;  13.771;   1.010;   0.750;   8.396;   8.384;   7.506;   3.752;   0.148;;;;;;;;;;;;;;;;;;
2016-09-24T02:07:31.592Z;0;6.5130e+00;0;     0.241;   820.652;  22933.021; 0;  22918.334;  22933.021;  23332.332;  22511.680;243;   8.391; 174.521;;;  29.761; 188.895;  13.772;   0.972;   0.712;   8.394;   8.382;   7.503;   3.755;   0.142;;;;;;;;;;;;;;;;;;
2016-09-24T02:07:39.592Z;0;6.8700e+00;0;     0.205;   820.652;  23551.729; 0;  23537.426;  23551.729;  23951.328;  23130.678;243;   8.391; 174.591;;;  29.830; 188.963;  13.773;   0.965;   0.705;   8.393;   8.382;   7.502;   3.756;   0.141;;;;;;;;;;;;;;;;;;
2016-09-24T02:07:47.592Z;0;6.8710e+00;0;     0.181;   820.652;  23554.023; 0;  23539.723;  23554.023;  23953.625;  23132.973;243;   8.391; 174.660;;;  29.900; 189.030;  13.773;   0.957;   0.697;   8.393;   8.382;   7.502;   3.756;   0.140;;;;;;;;;;;;;;;;;;
2016-09-24T02:14:11.589Z;0;1.0680e+01;0;     0.156;   836.472;  29358.205; 0;  29346.287;  29358.205;  29767.502;  28931.031;243;   8.374; 177.999;;;  33.249; 192.307;  13.791;   0.596;   0.336;   8.375;   8.365;   7.470;   3.784;   0.087;;;;;;;;;;;;;;;;;;
2016-09-24T02:14:19.589Z;0;1.0900e+01;0;     0.126;   836.472;  29653.992; 0;  29642.191;  29653.992;  30063.379;  29226.906;243;   8.374; 178.069;;;  33.319; 192.376;  13.791;   0.589;   0.328;   8.375;   8.365;   7.469;   3.784;   0.086;;;;;;;;;;;;;;;;;;
2016-09-24T02:14:27.589Z;0;9.7560e+00;0;     0.156;   836.472;  28061.098; 0;  28048.627;  28061.098;  28469.982;  27633.510;243;   8.373; 178.138;;;  33.389; 192.445;  13.792;   0.581;   0.321;   8.374;   8.364;   7.469;   3.785;   0.085;;;;;;;;;;;;;;;;;;
2016-09-24T02:15:31.589Z;0;1.0750e+01;0;     0.131;   857.416;  29449.689; 0;  29437.205;  29449.689;  29869.035;  29011.619;243;   8.370; 178.694;;;  33.953; 192.998;  13.794;   0.521;   0.260;   8.371;   8.362;   7.463;   3.789;   0.076;;;;;;;;;;;;;;;;;;
2016-09-24T02:15:39.589Z;0;9.0310e+00;0;     0.162;   857.416;  26999.363; 0;  26985.746;  26999.363;  27417.859;  26560.443;243;   8.370; 178.764;;;  34.024; 193.067;  13.795;   0.513;   0.253;   8.371;   8.361;   7.463;   3.790;   0.075;;;;;;;;;;;;;;;;;;
2016-09-24T02:15:47.589Z;0;8.9210e+00;0;     0.174;   857.416;  26834.920; 0;  26821.219;  26834.920;  27253.354;  26395.938;243;   8.370; 178.834;;;  34.094; 193.136;  13.795;   0.506;   0.245;   8.370;   8.361;   7.462;   3.790;   0.074;;;;;;;;;;;;;;;;;;
2016-09-24T02:15:55.589Z;0;8.9690e+00;0;     0.191;   857.416;  26907.695; 0;  26894.031;  26907.695;  27326.156;  26468.740;243;   8.369; 178.903;;;  34.165; 193.206;  13.796;   0.498;   0.238;   8.370;   8.361;   7.461;   3.791;   0.073;;;;;;;;;;;;;;;;;;
2016-09-24T02:16:03.589Z;0;1.0920e+01;0;     0.129;   839.944;  29689.453; 0;  29677.568;  29689.453;  30100.514;  29260.568;243;   8.369; 178.973;;;  34.236; 193.275;  13.796;   0.491;   0.230;   8.370;   8.360;   7.461;   3.792;   0.071;;;;;;;;;;;;;;;;;;
2016-09-24T02:16:11.589Z;0;9.8730e+00;0;     0.160;   839.944;  28228.406; 0;  28215.906;  28228.406;  28639.004;  27799.061;243;   8.369; 179.042;;;  34.306; 193.344;  13.796;   0.483;   0.223;   8.369;   8.360;   7.460;   3.792;   0.070;;;;;;;;;;;;;;;;;;
2016-09-24T02:16:19.589Z;0;8.0410e+00;0;     0.177;   839.944;  25478.070; 0;  25464.221;  25478.070;  25887.656;  25047.713;243;   8.368; 179.112;;;  34.377; 193.414;  13.797;   0.476;   0.215;   8.369;   8.360;   7.459;   3.793;   0.069;;;;;;;;;;;;;;;;;;
2016-09-24T02:16:27.589Z;0;1.0650e+01;0;     0.146;   839.944;  29316.006; 0;  29303.971;  29316.006;  29726.951;  28887.008;243;   8.368; 179.181;;;  34.447; 193.483;  13.797;   0.468;   0.208;   8.369;   8.359;   7.459;   3.793;   0.068;;;;;;;;;;;;;;;;;;
2016-09-24T02:16:35.588Z;0;1.0090e+01;0;     0.149;   839.944;  28535.781; 0;  28523.416;  28535.781;  28946.480;  28106.537;243;   8.368; 179.251;;;  34.518; 193.552;  13.797;   0.460;   0.200;   8.368;   8.359;   7.458;   3.794;   0.067;;;;;;;;;;;;;;;;;;
2016-09-24T02:16:43.588Z;0;1.0890e+01;0;     0.123;   839.944;  29639.588; 0;  29627.684;  29639.588;  30050.633;  29210.689;243;   8.367; 179.320;;;  34.589; 193.622;  13.798;   0.453;   0.192;   8.368;   8.359;   7.457;   3.794;   0.066;;;;;;;;;;;;;;;;;;
2016-09-24T02:16:51.588Z;0;9.2380e+00;0;     0.168;   839.944;  27306.926; 0;  27294.004;  27306.926;  27717.207;  26877.264;243;   8.367; 179.390;;;  34.660; 193.691;  13.798;   0.445;   0.185;   8.368;   8.358;   7.457;   3.795;   0.065;;;;;;;;;;;;;;;;;;
2016-09-24T02:16:59.588Z;0;9.8600e+00;0;     0.137;   839.944;  28209.928; 0;  28197.420;  28209.928;  28620.520;  27780.576;243;   8.367; 179.459;;;  34.730; 193.760;  13.799;   0.438;   0.177;   8.367;   8.358;   7.456;   3.796;   0.064;;;;;;;;;;;;;;;;;;
2016-09-24T02:17:07.588Z;0;9.5540e+00;0;     0.173;   842.744;  27770.174; 0;  27757.383;  27770.174;  28181.953;  27339.209;243;   8.366; 179.529;;;  34.801; 193.830;  13.799;   0.430;   0.170;   8.367;   8.358;   7.455;   3.796;   0.063;;;;;;;;;;;;;;;;;;
2016-09-24T02:17:15.588Z;0;7.3590e+00;0;     0.201;   842.744;  24375.604; 0;  24361.031;  24375.604;  24786.047;  23943.303;243;   8.366; 179.598;;;  34.872; 193.899;  13.799;   0.423;   0.162;   8.366;   8.357;   7.455;   3.797;   0.061;;;;;;;;;;;;;;;;;;
2016-09-24T02:17:31.588Z;0;8.6810e+00;0;     0.104;   842.744;  26471.027; 0;  26457.609;  26471.027;  26882.336;  26039.592;243;   8.365; 179.737;;;  35.013; 194.038;  13.800;   0.408;   0.147;   8.366;   8.357;   7.453;   3.798;   0.059;;;;;;;;;;;;;;;;;;
2016-09-24T02:17:39.588Z;0;8.4030e+00;0;     0.060;   842.744;  26044.887; 0;  26031.248;  26044.887;  26456.031;  25613.287;243;   8.365; 179.807;;;  35.084; 194.108;  13.800;   0.400;   0.140;   8.365;   8.356;   7.453;   3.798;   0.058;;;;;;;;;;;;;;;;;;
2016-09-24T02:17:47.588Z;0;9.8180e+00;0;     0.105;   842.744;  28150.111; 0;  28137.494;  28150.111;  28562.021;  27719.277;243;   8.365; 179.877;;;  35.155; 194.177;  13.801;   0.393;   0.132;   8.365;   8.356;   7.452;   3.799;   0.057;;;;;;;;;;;;;;;;;;
2016-09-24T02:17:55.588Z;0;1.0740e+01;0;     0.151;   842.744;  29441.498; 0;  29429.434;  29441.498;  29853.822;  29011.078;243;   8.364; 179.946;;;  35.226; 194.247;  13.801;   0.385;   0.124;   8.365;   8.356;   7.451;   3.800;   0.056;;;;;;;;;;;;;;;;;;
2016-09-24T02:18:03.588Z;0;7.5720e+00;0;     0.151;   850.556;  24725.387; 0;  24710.752;  24725.387;  25139.689;  24289.135;243;   8.364; 180.016;;;  35.297; 194.316;  13.801;   0.377;   0.117;   8.364;   8.355;   7.451;   3.800;   0.055;;;;;;;;;;;;;;;;;;
2016-09-24T02:18:11.588Z;0;6.2000e+00;0;     0.184;   850.556;  22375.615; 0;  22359.443;  22375.615;  22788.766;  21938.209;243;   8.364; 180.085;;;  35.368; 194.386;  13.802;   0.370;   0.109;   8.364;   8.355;   7.450;   3.801;   0.054;;;;;;;;;;;;;;;;;;